SCP
0 0 0 -0 0 -0 0 0 0 0 0 0 0 0 0 0 0 0 0 0 0 0 0 0 0 -0 0 0 0 0 0 0 0 0 0 0 0 0 -0 0 0 -0 0 0
0 0 0 0 0 0 0 0 0 0 0 0 0 0 0 0 0 0 0 0 0 0 0 0 0 0 -0 0 0 0 0 0 0 0 0 0 0 0 0 0 0 0 0 0
0 -0 -0 0 0 0 0 0 0 0 0 0 0 0 0 0 -0 -0 -0 0 0 0 0 0 0 0 0 0 0 0 0 0 0 0 0 0 0 0 0 0 0 0 1 0
0 0 0 0 0 0 0 -0 0 0 0 0 0 -0 -0 0 -0 -0 -0 0 0 0 0 1 0 0 0 0 0 0 0 0 0 0 0 0 0 0 0 0 1 0 1 2
0 0 0 0 0 0 0 -0 0 0 0 0 -0 0 0 -0 0 -0 0 0 0 0 0 0 0 1 1 1 0 0 0 0 0 0 1 1 1 1 1 1 1 1 1 3
0 0 0 0 0 0 0 0 0 0 0 -0 -0 -0 -0 0 -0 0 0 0 0 0 0 0 0 1 2 2 2 1 0 0 0 1 0 0 1 1 1 1 1 1 2 5
0 -0 0 0 0 0 0 0 0 0 0 0 0 0 -0 -0 -0 0 0 0 0 0 0 0 0 1 1 1 1 2 3 1 1 1 1 1 0 0 1 0 0 1 2 5
-0 0 0 0 0 0 0 0 0 0 0 0 -0 0 0 0 0 0 0 0 0 0 0 0 0 0 0 0 0 0 0 2 2 2 2 2 2 1 0 1 1 1 1 2
0 0 -0 0 0 -0 0 0 -0 0 0 0 0 0 0 0 0 0 0 0 0 0 0 0 0 0 0 0 0 0 0 0 0 0 0 0 3 3 2 1 1 1 0 1
0 0 0 0 0 0 0 0 0 0 -0 0 0 0 0 0 0 0 0 0 0 0 0 0 0 0 0 0 0 0 0 0 0 0 0 0 0 0 1 1 1 1 1 1
0 0 0 0 0 0 0 0 0 0 0 0 0 0 0 0 0 0 0 0 0 0 0 0 0 0 0 0 0 0 0 0 0 0 0 0 0 0 0 0 1 2 2 2
0 0 -0 0 0 0 0 0 0 0 0 0 0 0 0 0 0 0 0 0 0 0 0 0 0 0 0 0 0 0 0 0 0 0 -0 0 0 0 0 0 0 0 0 2
0 0 0 0 0 0 0 0 0 0 0 0 0 0 0 0 0 0 0 0 0 0 0 0 0 0 0 0 0 0 0 0 0 0 0 0 0 0 0 0 0 0 0 0
0 0 0 0 0 0 0 0 0 0 0 0 0 0 0 0 0 0 0 0 0 0 0 0 0 0 0 0 0 0 0 0 0 0 0 0 0 0 0 0 0 0 0 0
0 0 0 0 0 0 0 0 0 0 0 0 0 0 0 0 0 0 0 0 0 0 0 0 0 0 0 0 0 0 0 0 0 0 0 0 0 0 0 0 0 0 0 0
0 0 0 0 0 0 0 0 0 0 0 0 0 0 0 0 0 0 0 0 0 0 0 0 0 0 0 0 0 0 0 0 0 0 0 0 0 0 0 0 0 0 0 0
0 0 0 0 0 0 0 0 0 0 0 0 0 0 0 0 0 0 0 0 0 0 0 0 0 0 0 0 0 0 0 0 0 -0 0 0 0 0 0 0 0 0 0 0
0 0 0 0 0 0 0 0 0 0 0 0 0 0 0 0 0 0 0 0 0 0 0 0 0 0 0 0 0 0 0 0 0 0 0 0 0 0 0 0 0 0 0 0
0 0 0 0 0 0 0 0 0 0 0 0 0 0 0 0 0 0 0 0 0 0 0 0 0 0 0 0 0 0 0 0 0 0 0 0 0 0 0 0 0 0 0 0
0 0 0 0 0 0 0 0 0 0 0 0 0 0 0 0 0 0 0 0 0 0 0 0 0 0 0 0 0 0 0 0 0 0 0 0 0 0 0 0 0 0 0 0
0 0 0 0 0 0 0 0 0 0 0 0 0 0 0 0 0 0 0 0 0 0 0 0 0 0 0 0 0 0 0 0 0 0 0 0 0 0 0 0 0 0 0 0
0 0 0 0 0 0 0 0 0 0 0 0 0 0 0 0 0 0 0 0 0 0 -0 0 0 0 0 0 0 0 0 0 0 0 0 0 0 0 0 0 0 0 0 0
0 0 0 0 0 0 0 0 0 0 0 0 0 0 0 0 0 0 0 0 0 0 0 0 0 0 0 0 0 0 0 0 0 0 0 0 0 0 0 0 0 0 0 0
0 0 0 0 0 0 0 0 0 0 0 0 0 0 0 0 0 0 0 0 0 0 0 0 0 0 0 0 0 0 0 0 0 0 0 0 0 0 0 0 0 0 0 0
0 0 0 0 0 0 0 0 0 0 0 0 0 0 0 0 0 0 0 0 0 0 0 0 0 0 0 0 0 0 0 0 0 0 0 0 0 0 0 0 0 0 0 0
0 0 0 0 0 0 0 0 0 0 0 0 0 0 0 0 0 0 0 0 0 0 0 0 0 0 0 0 0 0 0 0 0 0 0 0 0 0 0 0 0 0 0 0
Wind_Speed_500mb
28 5 13 26 25 28 19 16 16 15 17 15 12 7 5 9 12 16 46 67 76 91 85 78 74 72 69 66 65 65 67 60 57 59 66 67 69 61 59 54 49 52 45 42
7 18 27 23 22 23 15 8 16 19 16 9 14 14 10 16 20 29 19 39 34 72 83 84 81 77 74 73 68 65 64 65 60 59 55 62 65 66 61 63 58 50 56 54
18 23 32 29 9 7 6 9 14 16 16 16 12 18 16 20 34 34 36 5 26 29 86 89 89 82 75 74 72 68 69 64 68 59 57 59 56 59 66 65 66 61 57 62
19 34 17 10 8 7 6 18 23 19 5 7 8 10 18 17 21 13 31 30 73 65 62 56 60 77 75 73 65 63 57 62 59 69 73 67 69 73 71 66 66 64 66 63
21 20 13 9 9 10 17 10 11 11 9 10 18 6 19 14 14 15 29 65 79 91 77 59 44 40 42 48 62 62 64 59 59 62 64 78 81 78 70 72 67 68 67 78
18 29 4 2 6 13 12 10 9 9 4 8 16 11 17 14 29 23 40 64 70 71 75 63 50 39 37 34 26 34 72 75 70 68 72 82 82 84 80 79 77 77 70 76
20 20 10 14 8 5 7 9 7 8 3 10 14 2 15 21 31 36 38 60 64 62 64 68 60 49 45 35 24 32 30 21 63 77 71 68 71 86 88 83 81 80 85 83
12 21 24 15 12 13 15 18 10 5 1 3 13 9 7 40 55 63 70 69 68 61 52 52 59 53 48 45 36 30 41 36 31 1 27 50 52 57 67 79 88 90 86 90
9 19 17 20 10 10 9 7 22 3 6 9 4 21 27 34 28 45 51 63 60 61 56 48 43 45 47 40 40 30 31 32 21 16 9 19 20 21 49 63 73 81 85 98
2 7 5 13 14 14 2 5 10 8 3 5 7 9 12 25 28 25 29 50 53 48 51 47 40 37 34 35 34 31 19 30 31 26 25 24 22 19 21 32 45 61 66 69
9 8 15 11 5 6 12 4 3 7 8 5 4 6 4 19 27 27 38 44 38 38 34 32 28 30 27 25 30 33 36 30 41 46 47 42 42 40 38 34 30 34 57 66
2 7 4 11 19 12 11 3 10 9 10 3 7 8 15 25 32 48 42 33 29 26 24 15 14 12 11 14 18 21 26 26 40 44 50 57 50 48 49 47 48 43 44 51
7 2 5 18 15 16 8 12 4 9 7 2 7 9 12 37 35 42 41 43 41 38 37 41 30 34 28 24 26 33 38 38 42 44 48 52 56 62 64 58 55 53 55 56
10 6 7 10 8 7 13 18 10 9 7 8 11 5 18 17 19 36 45 37 31 30 30 34 30 34 35 41 46 45 39 45 52 45 50 62 66 59 57 60 65 63 66 65
8 2 9 12 19 16 15 17 17 11 10 9 8 8 12 15 19 38 43 42 44 43 38 38 39 44 48 51 51 52 52 51 52 59 64 63 59 62 61 64 62 65 72 77
4 3 13 10 17 20 21 22 18 19 20 14 10 21 18 43 42 42 43 44 42 38 37 40 46 53 54 53 55 54 57 56 56 57 60 64 68 65 74 68 64 69 70 79
10 6 5 7 13 20 14 10 13 12 20 5 9 11 25 18 32 32 40 36 30 28 31 34 35 35 41 44 53 50 57 68 76 84 83 78 74 68 70 70 74 72 74 70
6 6 4 7 10 6 16 9 12 36 26 29 25 18 27 29 26 33 38 34 33 34 35 39 43 47 50 54 56 65 73 79 77 76 73 76 73 67 78 66 59 65 73 75
17 10 2 5 6 18 20 12 10 7 12 18 16 19 27 24 8 11 47 46 42 43 41 45 53 60 67 68 73 71 68 74 79 83 81 82 78 86 86 78 84 79 68 74
15 16 11 5 4 7 5 15 30 11 5 20 27 27 35 40 12 10 51 45 46 52 54 57 60 60 48 49 61 61 70 76 81 85 78 75 82 77 79 80 82 84 81 70
8 5 13 9 10 7 9 22 15 2 7 14 27 32 33 12 15 31 43 46 42 32 47 60 54 49 52 58 61 67 70 75 78 77 78 77 74 76 81 85 84 82 78 81
14 12 8 8 10 15 10 11 7 10 9 17 24 21 17 19 29 35 36 33 41 56 51 40 42 49 53 63 62 68 74 76 74 79 77 72 77 78 84 87 85 79 77 77
3 9 10 10 7 28 28 31 26 16 26 22 15 11 20 23 30 34 24 44 52 40 38 41 47 49 52 59 66 76 67 62 62 70 68 71 74 71 70 72 75 77 71 71
9 8 7 10 12 26 34 46 32 19 15 11 8 15 19 29 37 20 36 33 44 39 39 45 44 50 53 61 62 58 62 59 60 69 68 67 67 67 65 65 70 77 66 65
2 6 5 3 17 43 36 31 21 15 9 7 10 12 23 34 27 30 23 31 35 35 42 41 40 41 50 55 60 68 66 64 60 63 65 64 66 67 68 68 69 64 64 68
8 1 5 5 16 19 21 15 9 7 9 11 14 18 24 33 11 20 29 34 23 30 31 43 37 44 56 60 60 63 65 63 56 57 60 60 63 65 75 79 77 63 57 59
Wind_Direction_500mb
211 153 217 225 218 231 250 265 270 300 328 23 0 329 258 278 281 240 230 193 183 190 192 193 193 192 195 201 200 203 208 214 213 219 212 209 206 205 208 211 213 229 236 237
298 221 236 232 237 232 262 339 321 316 319 347 310 295 273 296 268 278 295 198 206 194 185 192 193 191 194 200 204 206 209 216 221 225 229 224 218 217 222 213 213 219 233 237
209 241 230 241 294 351 6 312 300 273 305 335 353 331 305 273 252 248 267 256 60 148 185 192 191 192 194 200 205 210 213 217 224 227 234 236 237 232 228 227 222 219 229 238
219 252 218 205 260 297 282 246 245 252 332 284 69 280 284 251 236 234 252 91 74 66 174 182 183 190 200 206 210 214 218 221 225 230 230 234 237 237 237 237 237 231 227 239
252 226 256 270 197 205 233 280 5 2 6 24 315 19 276 306 196 226 92 90 88 86 84 91 172 150 203 213 213 225 229 228 230 230 240 241 241 246 244 239 238 242 241 234
269 280 271 209 253 222 279 7 352 345 25 334 249 180 284 273 103 94 83 94 93 93 88 83 93 113 93 105 97 235 237 233 231 239 237 240 247 248 247 244 239 235 239 243
284 266 220 174 312 269 137 55 347 335 10 211 266 8 220 97 102 111 96 84 90 93 90 85 82 75 68 63 84 73 71 242 247 244 247 250 251 251 250 253 248 244 240 241
253 269 207 163 181 204 182 158 168 239 220 231 296 47 30 76 65 70 74 79 81 83 84 83 75 73 74 74 73 78 68 68 64 204 286 273 278 280 275 265 259 252 250 247
2 333 128 140 175 166 299 159 222 162 296 44 142 76 57 76 75 73 72 73 73 76 81 80 72 70 66 61 62 72 63 42 29 18 348 67 48 342 279 272 273 271 264 252
37 356 109 146 58 335 220 244 21 358 117 261 315 149 160 117 110 92 75 66 66 71 67 73 68 60 50 40 30 28 29 15 353 330 316 318 293 297 313 323 276 272 272 271
66 81 299 24 158 322 329 272 341 128 129 177 344 320 354 113 108 99 82 71 62 57 59 51 51 41 36 29 27 20 15 8 345 331 322 316 311 304 298 301 302 291 274 273
54 114 351 284 307 309 309 345 120 109 304 5 134 284 112 103 106 103 97 90 85 64 62 46 51 30 13 10 5 349 340 345 338 331 328 323 315 311 310 308 287 287 282 270
326 56 34 334 336 12 0 7 37 111 93 219 111 268 88 95 90 95 89 68 54 41 34 35 51 49 30 360 336 334 330 323 311 312 317 315 314 313 313 305 301 296 284 276
49 21 131 198 225 332 321 319 330 131 125 225 210 155 100 60 63 62 64 56 45 35 30 30 19 5 354 346 342 337 332 319 320 315 308 309 311 312 308 309 308 298 295 290
88 75 9 305 305 316 297 305 309 315 234 172 257 63 93 88 75 52 40 34 53 43 32 14 358 347 342 338 334 332 329 327 320 317 315 313 310 310 304 305 301 302 300 295
35 45 25 322 312 301 287 274 278 275 279 277 240 110 116 79 64 44 52 53 44 24 6 349 337 331 332 330 329 327 323 324 321 320 320 313 312 304 303 305 299 301 294 299
125 114 61 272 344 347 312 250 259 246 44 45 96 136 85 68 61 41 71 51 34 10 349 339 339 338 334 330 331 322 318 313 312 312 306 303 301 304 309 303 299 299 293 295
95 81 93 263 335 253 249 345 110 81 46 52 75 70 63 52 41 61 45 32 17 7 358 347 341 336 326 324 321 318 319 316 319 319 317 319 317 312 295 295 305 299 294 295
154 133 176 184 230 286 325 13 359 36 51 33 61 55 46 28 21 110 6 6 3 355 348 335 327 320 316 316 314 315 318 319 318 321 316 314 312 311 309 308 290 294 294 294
158 149 141 183 255 276 75 41 5 20 77 30 45 35 29 20 25 342 346 343 333 329 329 328 330 330 332 335 332 324 320 319 318 320 316 308 306 309 312 310 309 296 287 290
119 150 176 193 216 227 20 36 349 49 186 26 43 43 35 38 357 332 323 328 333 333 329 329 322 329 331 331 326 322 324 323 322 318 319 311 313 305 308 309 310 307 294 285
168 157 198 211 222 241 348 46 81 141 95 70 63 39 16 342 322 321 322 330 331 329 336 336 332 332 335 336 337 332 326 322 317 314 316 313 312 313 306 307 308 305 301 292
160 162 150 137 179 133 105 123 128 118 89 58 37 6 343 324 315 317 334 330 337 340 331 336 337 338 337 337 333 329 331 332 330 323 319 319 319 318 318 312 310 310 305 296
60 40 92 89 126 150 132 99 97 86 70 23 357 340 333 316 316 335 332 333 334 340 340 337 339 340 336 339 339 338 334 339 339 344 337 334 330 331 328 321 314 307 304 299
159 73 75 102 81 98 81 80 71 69 76 8 344 325 322 331 339 348 340 334 340 332 341 344 343 343 338 340 346 349 348 340 336 340 342 342 342 342 338 332 325 318 310 305
48 12 133 158 89 92 80 62 86 66 22 331 327 324 329 330 331 322 327 325 345 345 344 336 353 347 344 351 353 355 358 351 342 332 344 344 344 341 336 331 326 320 316 311
Wind_Speed_850mb
28 5 13 26 25 28 19 16 16 15 17 15 12 7 5 9 12 16 46 67 76 91 85 78 74 72 69 66 65 65 67 60 57 59 66 67 69 61 59 54 49 52 45 42
7 18 27 23 22 23 15 8 16 19 16 9 14 14 10 16 20 29 19 39 34 72 83 84 81 77 74 73 68 65 64 65 60 59 55 62 65 66 61 63 58 50 56 54
18 23 32 29 9 7 6 9 14 16 16 16 12 18 16 20 34 34 36 5 26 29 86 89 89 82 75 74 72 68 69 64 68 59 57 59 56 59 66 65 66 61 57 62
19 34 17 10 8 7 6 18 23 19 5 7 8 10 18 17 21 13 31 30 73 65 62 56 60 77 75 73 65 63 57 62 59 69 73 67 69 73 71 66 66 64 66 63
21 20 13 9 9 10 17 10 11 11 9 10 18 6 19 14 14 15 29 65 79 91 77 59 44 40 42 48 62 62 64 59 59 62 64 78 81 78 70 72 67 68 67 78
18 29 4 2 6 13 12 10 9 9 4 8 16 11 17 14 29 23 40 64 70 71 75 63 50 39 37 34 26 34 72 75 70 68 72 82 82 84 80 79 77 77 70 76
20 20 10 14 8 5 7 9 7 8 3 10 14 2 15 21 31 36 38 60 64 62 64 68 60 49 45 35 24 32 30 21 63 77 71 68 71 86 88 83 81 80 85 83
12 21 24 15 12 13 15 18 10 5 1 3 13 9 7 40 55 63 70 69 68 61 52 52 59 53 48 45 36 30 41 36 31 1 27 50 52 57 67 79 88 90 86 90
9 19 17 20 10 10 9 7 22 3 6 9 4 21 27 34 28 45 51 63 60 61 56 48 43 45 47 40 40 30 31 32 21 16 9 19 20 21 49 63 73 81 85 98
2 7 5 13 14 14 2 5 10 8 3 5 7 9 12 25 28 25 29 50 53 48 51 47 40 37 34 35 34 31 19 30 31 26 25 24 22 19 21 32 45 61 66 69
9 8 15 11 5 6 12 4 3 7 8 5 4 6 4 19 27 27 38 44 38 38 34 32 28 30 27 25 30 33 36 30 41 46 47 42 42 40 38 34 30 34 57 66
2 7 4 11 19 12 11 3 10 9 10 3 7 8 15 25 32 48 42 33 29 26 24 15 14 12 11 14 18 21 26 26 40 44 50 57 50 48 49 47 48 43 44 51
7 2 5 18 15 16 8 12 4 9 7 2 7 9 12 37 35 42 41 43 41 38 37 41 30 34 28 24 26 33 38 38 42 44 48 52 56 62 64 58 55 53 55 56
10 6 7 10 8 7 13 18 10 9 7 8 11 5 18 17 19 36 45 37 31 30 30 34 30 34 35 41 46 45 39 45 52 45 50 62 66 59 57 60 65 63 66 65
8 2 9 12 19 16 15 17 17 11 10 9 8 8 12 15 19 38 43 42 44 43 38 38 39 44 48 51 51 52 52 51 52 59 64 63 59 62 61 64 62 65 72 77
4 3 13 10 17 20 21 22 18 19 20 14 10 21 18 43 42 42 43 44 42 38 37 40 46 53 54 53 55 54 57 56 56 57 60 64 68 65 74 68 64 69 70 79
10 6 5 7 13 20 14 10 13 12 20 5 9 11 25 18 32 32 40 36 30 28 31 34 35 35 41 44 53 50 57 68 76 84 83 78 74 68 70 70 74 72 74 70
6 6 4 7 10 6 16 9 12 36 26 29 25 18 27 29 26 33 38 34 33 34 35 39 43 47 50 54 56 65 73 79 77 76 73 76 73 67 78 66 59 65 73 75
17 10 2 5 6 18 20 12 10 7 12 18 16 19 27 24 8 11 47 46 42 43 41 45 53 60 67 68 73 71 68 74 79 83 81 82 78 86 86 78 84 79 68 74
15 16 11 5 4 7 5 15 30 11 5 20 27 27 35 40 12 10 51 45 46 52 54 57 60 60 48 49 61 61 70 76 81 85 78 75 82 77 79 80 82 84 81 70
8 5 13 9 10 7 9 22 15 2 7 14 27 32 33 12 15 31 43 46 42 32 47 60 54 49 52 58 61 67 70 75 78 77 78 77 74 76 81 85 84 82 78 81
14 12 8 8 10 15 10 11 7 10 9 17 24 21 17 19 29 35 36 33 41 56 51 40 42 49 53 63 62 68 74 76 74 79 77 72 77 78 84 87 85 79 77 77
3 9 10 10 7 28 28 31 26 16 26 22 15 11 20 23 30 34 24 44 52 40 38 41 47 49 52 59 66 76 67 62 62 70 68 71 74 71 70 72 75 77 71 71
9 8 7 10 12 26 34 46 32 19 15 11 8 15 19 29 37 20 36 33 44 39 39 45 44 50 53 61 62 58 62 59 60 69 68 67 67 67 65 65 70 77 66 65
2 6 5 3 17 43 36 31 21 15 9 7 10 12 23 34 27 30 23 31 35 35 42 41 40 41 50 55 60 68 66 64 60 63 65 64 66 67 68 68 69 64 64 68
8 1 5 5 16 19 21 15 9 7 9 11 14 18 24 33 11 20 29 34 23 30 31 43 37 44 56 60 60 63 65 63 56 57 60 60 63 65 75 79 77 63 57 59
Wind_Direction_850mb
211 153 217 225 218 231 250 265 270 300 328 23 0 329 258 278 281 240 230 193 183 190 192 193 193 192 195 201 200 203 208 214 213 219 212 209 206 205 208 211 213 229 236 237
298 221 236 232 237 232 262 339 321 316 319 347 310 295 273 296 268 278 295 198 206 194 185 192 193 191 194 200 204 206 209 216 221 225 229 224 218 217 222 213 213 219 233 237
209 241 230 241 294 351 6 312 300 273 305 335 353 331 305 273 252 248 267 256 60 148 185 192 191 192 194 200 205 210 213 217 224 227 234 236 237 232 228 227 222 219 229 238
219 252 218 205 260 297 282 246 245 252 332 284 69 280 284 251 236 234 252 91 74 66 174 182 183 190 200 206 210 214 218 221 225 230 230 234 237 237 237 237 237 231 227 239
252 226 256 270 197 205 233 280 5 2 6 24 315 19 276 306 196 226 92 90 88 86 84 91 172 150 203 213 213 225 229 228 230 230 240 241 241 246 244 239 238 242 241 234
269 280 271 209 253 222 279 7 352 345 25 334 249 180 284 273 103 94 83 94 93 93 88 83 93 113 93 105 97 235 237 233 231 239 237 240 247 248 247 244 239 235 239 243
284 266 220 174 312 269 137 55 347 335 10 211 266 8 220 97 102 111 96 84 90 93 90 85 82 75 68 63 84 73 71 242 247 244 247 250 251 251 250 253 248 244 240 241
253 269 207 163 181 204 182 158 168 239 220 231 296 47 30 76 65 70 74 79 81 83 84 83 75 73 74 74 73 78 68 68 64 204 286 273 278 280 275 265 259 252 250 247
2 333 128 140 175 166 299 159 222 162 296 44 142 76 57 76 75 73 72 73 73 76 81 80 72 70 66 61 62 72 63 42 29 18 348 67 48 342 279 272 273 271 264 252
37 356 109 146 58 335 220 244 21 358 117 261 315 149 160 117 110 92 75 66 66 71 67 73 68 60 50 40 30 28 29 15 353 330 316 318 293 297 313 323 276 272 272 271
66 81 299 24 158 322 329 272 341 128 129 177 344 320 354 113 108 99 82 71 62 57 59 51 51 41 36 29 27 20 15 8 345 331 322 316 311 304 298 301 302 291 274 273
54 114 351 284 307 309 309 345 120 109 304 5 134 284 112 103 106 103 97 90 85 64 62 46 51 30 13 10 5 349 340 345 338 331 328 323 315 311 310 308 287 287 282 270
326 56 34 334 336 12 0 7 37 111 93 219 111 268 88 95 90 95 89 68 54 41 34 35 51 49 30 360 336 334 330 323 311 312 317 315 314 313 313 305 301 296 284 276
49 21 131 198 225 332 321 319 330 131 125 225 210 155 100 60 63 62 64 56 45 35 30 30 19 5 354 346 342 337 332 319 320 315 308 309 311 312 308 309 308 298 295 290
88 75 9 305 305 316 297 305 309 315 234 172 257 63 93 88 75 52 40 34 53 43 32 14 358 347 342 338 334 332 329 327 320 317 315 313 310 310 304 305 301 302 300 295
35 45 25 322 312 301 287 274 278 275 279 277 240 110 116 79 64 44 52 53 44 24 6 349 337 331 332 330 329 327 323 324 321 320 320 313 312 304 303 305 299 301 294 299
125 114 61 272 344 347 312 250 259 246 44 45 96 136 85 68 61 41 71 51 34 10 349 339 339 338 334 330 331 322 318 313 312 312 306 303 301 304 309 303 299 299 293 295
95 81 93 263 335 253 249 345 110 81 46 52 75 70 63 52 41 61 45 32 17 7 358 347 341 336 326 324 321 318 319 316 319 319 317 319 317 312 295 295 305 299 294 295
154 133 176 184 230 286 325 13 359 36 51 33 61 55 46 28 21 110 6 6 3 355 348 335 327 320 316 316 314 315 318 319 318 321 316 314 312 311 309 308 290 294 294 294
158 149 141 183 255 276 75 41 5 20 77 30 45 35 29 20 25 342 346 343 333 329 329 328 330 330 332 335 332 324 320 319 318 320 316 308 306 309 312 310 309 296 287 290
119 150 176 193 216 227 20 36 349 49 186 26 43 43 35 38 357 332 323 328 333 333 329 329 322 329 331 331 326 322 324 323 322 318 319 311 313 305 308 309 310 307 294 285
168 157 198 211 222 241 348 46 81 141 95 70 63 39 16 342 322 321 322 330 331 329 336 336 332 332 335 336 337 332 326 322 317 314 316 313 312 313 306 307 308 305 301 292
160 162 150 137 179 133 105 123 128 118 89 58 37 6 343 324 315 317 334 330 337 340 331 336 337 338 337 337 333 329 331 332 330 323 319 319 319 318 318 312 310 310 305 296
60 40 92 89 126 150 132 99 97 86 70 23 357 340 333 316 316 335 332 333 334 340 340 337 339 340 336 339 339 338 334 339 339 344 337 334 330 331 328 321 314 307 304 299
159 73 75 102 81 98 81 80 71 69 76 8 344 325 322 331 339 348 340 334 340 332 341 344 343 343 338 340 346 349 348 340 336 340 342 342 342 342 338 332 325 318 310 305
48 12 133 158 89 92 80 62 86 66 22 331 327 324 329 330 331 322 327 325 345 345 344 336 353 347 344 351 353 355 358 351 342 332 344 344 344 341 336 331 326 320 316 311